SCP
1 1 1 1 1 1 1 1 1 1 1 1 1 1 1 1 1 1 1 1 1 1 1 1 1 1 1 1 1 1 1 1 1 0 0 0 0 0 0 0 0 0 0
1 1 1 1 1 1 1 1 1 1 1 2 2 2 2 2 1 1 1 1 1 1 1 1 1 1 1 1 1 1 0 0 0 0 0 0 0 0 0 0 0 0 0
1 1 1 1 1 1 1 1 1 1 2 2 2 2 2 2 1 1 1 1 1 1 1 1 1 1 1 1 0 0 0 0 0 0 0 0 0 0 0 0 0 0 0
1 1 1 1 1 1 1 1 1 2 2 2 2 2 2 2 1 1 1 1 1 1 1 1 1 0 0 0 0 0 0 0 0 0 0 0 0 0 0 0 0 0 0
1 1 1 1 1 1 2 2 2 2 2 2 2 2 2 2 1 1 1 1 0 0 0 0 0 0 0 0 0 0 0 0 0 0 0 0 0 0 0 0 0 0 0
1 1 1 1 1 1 1 1 1 1 1 2 2 2 1 1 1 1 0 0 0 0 0 0 0 0 0 0 0 0 0 0 0 0 0 0 0 0 0 0 0 0 0
0 0 0 0 1 1 1 1 1 1 1 1 1 1 1 1 0 0 0 0 0 0 0 0 0 0 0 0 0 0 0 0 0 0 0 0 0 0 0 0 0 0 0
0 0 0 0 0 0 0 0 0 0 0 0 0 0 0 0 0 0 0 0 0 0 0 0 0 0 0 0 0 0 0 0 0 0 0 0 0 0 0 0 0 0 0
0 0 0 0 0 0 0 0 0 0 0 0 0 0 0 0 0 0 0 0 0 0 0 0 0 0 0 0 0 0 0 0 0 0 0 0 0 0 0 0 0 0 0
0 0 0 0 0 0 0 0 0 0 0 0 0 0 0 0 0 0 0 0 0 0 0 0 0 0 0 0 0 0 0 0 0 0 0 0 0 0 0 0 0 0 0
0 0 0 0 0 0 0 0 0 0 0 0 0 0 0 0 0 0 0 0 0 0 0 0 0 0 0 0 0 0 0 0 0 0 0 0 0 0 0 0 0 0 0
0 0 0 0 0 0 0 0 0 0 0 0 0 0 0 0 0 0 0 0 0 0 0 0 0 0 0 0 0 0 0 0 0 0 0 0 0 0 0 0 0 0 0
0 0 0 0 0 0 0 0 0 0 0 0 0 0 0 0 0 0 0 0 0 0 0 0 0 0 0 0 0 0 0 0 0 0 0 0 0 0 0 0 0 0 0
0 0 0 0 0 0 0 0 0 0 0 0 0 0 0 0 0 0 0 0 0 0 0 0 0 0 0 0 0 0 0 0 0 0 0 0 0 0 0 0 0 0 0
0 0 0 0 0 0 0 0 0 0 0 0 0 0 0 0 0 0 0 0 0 0 0 0 0 0 0 0 0 0 0 0 0 0 0 0 0 0 0 0 0 0 0
0 0 0 0 0 0 0 0 0 0 0 0 0 0 0 0 0 0 0 0 0 0 0 0 0 0 0 0 0 0 0 0 0 0 0 0 0 0 0 0 0 0 0
0 0 0 0 0 0 0 0 0 0 0 0 0 0 0 0 0 0 0 0 0 0 0 0 0 0 0 0 0 0 0 0 0 0 0 0 0 0 0 0 0 0 0
0 0 0 0 0 0 0 0 0 0 0 0 0 0 0 0 0 0 0 0 0 0 0 0 0 0 0 0 0 0 0 0 0 0 0 0 0 0 0 0 0 0 0
0 0 0 0 0 0 0 0 0 0 0 0 0 0 0 0 0 0 0 0 0 0 0 0 0 0 0 0 -0 0 0 0 0 0 0 0 0 0 0 0 0 0 0
0 0 0 0 0 0 0 0 0 0 0 0 0 0 0 0 0 0 0 0 0 0 0 0 0 0 0 0 0 0 0 0 0 0 0 0 0 0 0 0 0 0 0
0 0 0 0 0 0 0 0 0 0 0 0 0 0 0 0 0 0 0 0 0 0 0 0 0 0 0 0 0 0 0 0 0 0 0 0 0 0 0 0 0 0 0
0 0 0 0 0 0 0 0 0 0 0 0 0 0 0 0 0 0 0 0 0 0 0 0 0 0 0 0 0 0 0 0 0 0 0 0 0 0 0 0 0 0 0
0 0 0 0 0 0 0 0 0 0 0 0 0 0 0 0 0 0 0 0 0 0 0 0 0 0 0 0 0 0 0 0 0 0 0 0 0 0 0 0 0 0 0
0 0 0 0 0 0 0 0 0 0 0 0 0 0 0 0 0 0 0 0 0 0 0 0 0 0 0 0 0 0 0 0 0 0 0 0 0 0 0 0 0 0 0
0 0 0 0 0 0 0 0 0 0 0 0 0 0 0 0 0 0 0 0 0 0 0 0 0 0 0 0 0 0 0 0 0 0 0 0 0 0 0 0 0 0 0
0 0 0 0 0 0 0 0 0 0 0 0 0 0 0 0 0 0 0 0 0 0 0 0 0 0 0 0 0 0 0 0 0 0 0 0 0 0 0 0 0 0 0
Wind_Speed
6 7 7 7 8 8 9 10 10 10 9 8 8 8 7 5 4 3 3 3 3 4 4 3 3 3 2 2 3 2 3 2 2 2 3 3 2 1 0 1 1 1 1
7 6 5 5 6 6 7 8 9 10 10 8 7 5 5 3 3 3 2 2 1 1 2 2 2 1 1 1 1 1 1 1 1 3 3 4 4 3 1 1 0 0 0
7 7 6 5 4 4 4 4 6 8 9 8 6 5 4 3 3 3 2 3 3 3 2 2 1 2 1 1 1 2 3 2 2 2 3 3 4 3 3 2 1 1 1
9 8 8 7 6 4 3 2 2 4 6 8 8 8 6 5 4 3 3 4 5 4 4 4 4 3 2 1 1 1 2 2 2 1 1 2 2 1 2 2 2 2 1
11 11 10 10 9 7 6 5 4 3 2 4 6 6 5 4 4 5 5 5 6 6 6 5 5 4 4 4 3 3 2 1 1 1 1 1 1 1 1 1 2 2 1
12 11 11 11 11 10 9 8 8 8 6 5 4 4 6 7 7 6 5 5 6 7 7 7 6 6 5 5 6 6 7 5 5 4 3 2 1 1 1 1 2 2 2
11 12 12 12 12 12 12 11 12 12 12 11 10 8 8 8 9 7 6 7 6 6 8 7 8 7 7 7 7 8 7 7 7 5 4 4 3 2 2 2 2 3 2
11 12 12 12 12 13 13 13 14 14 13 13 13 12 12 9 8 10 9 9 8 8 9 9 10 10 9 8 8 7 7 7 7 7 6 4 4 4 3 3 4 4 4
11 12 12 12 12 13 13 14 14 15 15 15 15 14 13 13 12 12 11 9 9 8 11 11 11 10 10 9 8 7 7 6 6 6 6 4 4 4 4 4 4 5 6
11 11 11 12 12 13 13 15 15 16 15 15 14 13 14 14 13 13 13 12 11 10 10 10 10 10 9 9 8 7 7 6 6 5 6 5 4 4 3 4 4 4 6
11 11 11 12 13 13 14 14 15 15 15 15 15 15 14 13 13 12 12 11 10 10 10 10 10 10 9 8 7 7 6 6 5 5 5 5 5 5 5 4 4 4 5
11 11 12 12 13 13 14 14 13 14 14 14 14 14 13 13 13 12 11 10 10 9 9 9 9 9 8 8 7 7 6 6 6 5 5 5 4 5 5 5 5 5 5
12 12 12 12 12 12 12 13 13 13 13 13 13 13 13 12 12 11 10 10 9 9 9 9 9 8 7 7 7 6 6 6 6 6 6 5 6 6 5 6 6 6 6
12 12 12 11 11 11 12 12 12 12 12 12 12 12 12 11 10 10 10 9 9 9 8 8 8 7 7 7 7 6 6 6 5 5 6 6 7 7 8 6 6 7 8
12 12 12 11 11 11 11 11 11 10 10 11 11 11 10 10 10 10 9 9 8 8 7 7 7 6 6 8 9 7 6 6 6 6 6 6 5 6 7 8 9 9 8
12 12 12 11 11 10 10 10 10 9 9 10 11 10 10 9 9 9 8 8 8 7 7 7 6 7 7 7 8 9 7 6 6 7 7 6 3 3 6 8 9 11 11
12 12 11 10 9 9 9 9 9 9 9 9 10 9 9 9 8 8 8 7 7 6 6 6 6 6 7 5 6 8 9 7 6 7 7 7 6 6 7 7 10 12 13
11 11 10 10 9 9 8 8 8 8 9 9 9 9 8 8 7 7 7 6 5 5 5 5 5 5 7 6 7 11 9 6 6 6 7 7 8 7 9 12 12 11 8
10 10 9 9 9 8 8 8 8 8 8 8 8 7 7 7 6 6 6 5 5 4 4 5 6 5 6 7 8 12 8 6 7 6 6 6 7 7 9 11 11 11 9
10 10 9 9 8 7 7 7 8 8 8 7 7 7 6 6 6 5 5 4 4 4 4 5 5 6 6 6 6 11 8 7 7 6 4 0 4 8 9 11 11 11 10
11 10 9 8 7 7 7 7 7 7 7 6 6 6 5 4 4 4 3 3 4 4 4 5 4 4 5 4 3 7 8 9 9 7 6 5 5 10 11 11 10 10 11
11 9 8 8 7 7 6 7 7 6 5 5 5 4 3 3 3 3 3 3 4 3 2 3 3 2 2 4 3 4 6 8 9 7 7 7 11 14 14 11 8 11 12
9 8 9 8 7 6 5 6 6 5 4 3 4 3 3 2 2 3 2 2 2 4 4 4 4 4 4 2 3 6 8 9 8 7 8 11 13 14 10 7 10 11 7
9 8 8 8 7 6 6 5 5 3 3 3 2 2 1 2 2 2 3 4 5 5 5 5 5 5 4 6 8 8 6 5 6 7 8 9 11 10 7 7 5 5 6
8 8 7 8 8 6 5 5 4 2 2 2 1 1 1 2 1 2 5 5 7 7 7 7 7 7 7 8 10 9 9 9 9 11 7 6 6 6 6 7 7 6 6
8 8 8 7 7 5 5 4 3 1 0 1 0 1 1 1 1 1 5 6 5 4 2 3 6 5 6 8 10 10 10 11 12 10 6 7 7 8 8 8 8 8 8
Wind_Direction
123 137 150 158 163 169 177 185 192 189 190 192 194 194 195 192 185 180 172 184 200 204 219 225 203 219 230 235 238 237 224 227 220 217 210 200 192 194 212 266 257 205 214
102 108 122 138 152 159 173 182 191 190 193 195 199 197 184 179 167 152 126 127 154 160 194 212 187 176 188 177 235 257 242 203 233 250 230 224 204 190 161 155 143 38 312
84 88 91 98 119 137 160 178 190 190 193 193 186 169 161 157 159 147 122 85 82 79 77 72 81 97 119 153 198 220 222 213 205 279 262 250 239 165 148 107 104 119 98
68 66 69 69 65 70 91 115 155 180 185 185 184 178 178 176 165 136 114 92 77 73 73 83 86 87 90 112 161 202 218 200 192 178 355 355 356 263 179 159 127 101 86
63 59 56 57 52 48 53 63 72 75 116 167 173 170 166 148 125 115 110 94 81 71 64 73 83 84 80 79 79 71 58 68 94 109 96 79 50 9 264 221 185 176 159
60 58 54 52 48 45 47 55 62 58 60 82 108 138 135 124 117 113 113 99 82 70 65 67 69 70 69 68 68 69 67 63 65 62 56 51 42 18 349 283 241 239 209
58 54 50 49 47 44 44 51 58 55 52 61 63 70 85 94 100 102 96 91 81 72 66 64 64 65 65 66 67 67 63 62 62 55 49 46 37 14 345 310 288 269 235
62 57 53 52 51 49 49 54 58 58 56 60 61 61 65 70 73 76 78 76 73 69 69 69 68 64 62 63 63 67 64 59 59 56 44 35 32 8 359 339 318 292 266
69 64 60 58 58 57 55 59 64 64 61 62 65 65 66 71 74 74 72 72 75 77 72 70 67 63 60 58 57 58 54 50 45 45 39 23 25 6 359 344 328 314 304
77 71 67 66 65 65 66 65 67 69 68 69 70 74 73 74 76 77 76 74 73 73 73 72 70 67 61 57 55 59 52 53 49 38 30 8 5 359 342 332 324 314 307
87 80 74 72 71 70 69 70 71 73 72 73 74 76 76 76 78 78 79 78 76 74 74 72 70 68 64 59 56 53 47 45 41 28 22 11 355 342 327 320 312 309 311
93 89 84 80 76 74 73 73 74 76 78 79 80 80 81 81 81 81 80 80 78 76 77 77 73 69 66 59 55 50 41 35 30 20 7 354 341 327 314 321 315 315 314
102 96 89 84 82 82 81 80 79 81 83 86 86 85 85 85 86 87 88 87 87 84 81 80 77 71 66 61 54 46 38 28 19 7 355 343 334 323 329 314 313 308 302
106 100 94 89 88 88 87 87 85 87 88 89 88 87 87 88 89 89 87 85 84 83 79 74 71 64 55 48 41 35 27 18 11 359 345 339 340 338 330 313 312 311 307
110 105 101 98 95 92 90 89 89 89 91 91 90 90 91 91 90 89 89 88 85 82 77 71 67 60 54 36 15 5 11 2 355 350 342 345 344 338 326 322 325 316 307
114 110 107 105 101 98 97 96 95 95 95 95 94 94 95 95 94 93 91 85 79 71 65 59 54 48 50 41 8 342 346 347 346 344 339 324 284 323 279 273 286 295 296
117 116 113 110 108 106 108 107 106 106 103 99 98 98 96 93 92 90 85 78 72 64 55 47 41 46 63 37 3 341 322 334 345 338 332 327 346 314 323 306 275 266 253
118 116 115 114 113 115 114 113 113 110 104 100 98 96 94 92 89 84 77 70 61 54 45 35 29 32 63 39 4 334 305 332 336 332 329 327 329 358 343 319 309 307 302
117 115 115 117 119 121 122 120 114 107 102 100 99 96 92 90 84 77 70 60 52 45 32 36 23 19 62 46 5 336 320 339 336 332 334 331 334 26 339 310 307 312 315
119 120 122 121 120 120 122 119 112 106 101 99 97 93 86 79 74 69 58 53 39 30 15 31 22 15 33 60 9 339 325 341 335 332 332 102 337 338 318 308 308 312 319
124 125 124 121 121 123 120 117 112 105 103 102 101 93 87 81 72 64 45 25 18 24 13 14 19 28 30 81 44 344 330 339 331 331 338 11 356 322 310 296 291 302 307
126 126 125 122 123 127 129 121 109 105 105 106 103 94 80 65 72 48 30 17 353 344 7 15 9 31 69 41 36 315 305 307 314 324 339 348 332 315 303 295 300 300 293
129 133 129 124 124 130 131 120 115 117 117 114 98 91 87 77 44 6 3 356 348 349 6 12 12 17 20 85 214 263 272 272 295 323 321 304 298 298 293 273 283 289 292
135 136 133 130 126 125 118 113 117 123 124 111 101 92 94 105 72 352 3 6 8 11 10 12 9 11 16 19 5 346 333 309 305 324 311 286 276 276 299 309 305 310 324
134 137 134 130 126 127 125 121 117 125 125 126 112 57 65 65 49 52 34 14 45 31 1 5 2 7 10 14 345 326 334 336 336 323 316 341 351 353 357 355 351 342 339
134 133 130 127 127 128 123 118 121 126 175 181 123 350 22 50 339 105 125 83 58 89 60 9 345 10 22 342 328 323 314 306 304 308 345 357 357 358 357 352 349 349 351